Showing default

AXIOM-4, 64593

Orbit data source: Space-Track

AXIOM-4, 64593 is a payload satellite owned by SpaceX (US) in LEO that was launched on Wed, 25 Jun 2025 UTC via an FALCON 9 launch vehicle from the Air Force Eastern Test Range (AFETR). Payload-class satellites include a variety of spacecraft equipped with specific instruments for various scientific and technological missions. These include communications satellites like Starlink; space stations such as the ISS; scientific satellites like the Hubble; Earth observation satellites from companies like Planet Labs, Umbra, and HawkEye 360; GPS; miniature CubeSats for education and research; and military/defense satellites.

Loading next visibility...
Identifier
64593, 2025-136A
Orbit
LEO
Last TLE update
15 hours ago
Origin
Manufacturer
SpaceX
Mission
Operational spacecraft
Bus & Motor
DRAGON CM, Unknown motor
Mass
~13,000 kg wet, ~9,500 kg dry
Launch date (UTC)
2025-06-25 (6 days ago)
Launch vehicle
FALCON 9
Launch site
Air Force Eastern Test Range (AFETR)
Object type
Payload
Rocket body
Debris
Shape & HBR
Unknown
Radar Cross Section
RCS unknown

Expand to show TLE details & history

TLE from 15 hours ago
0 AXIOM-4
1 64593U 25136A   25181.80067940  .00004863  00000-0  92136-4 0  9991
2 64593  51.6345 239.6041 0002317 313.2634  46.8161 15.50309575   661
Epoch: 2025-06-30T19:12Z
TLE epoch observation values (Epoch: 2025-06-30T19:12:58.7Z)
Latitude
-0.00004°
Longitude
32.25421°
Altitude
415.485 km
Speed
7.664 km/s
True Right ascension
15h 58m 24s
True Declination
0° 00' 00"
Sunlit
Object was in full shadow at epoch
Visualization orbit readout
Latitude
-13.91458°
Longitude
-139.55211°
Altitude
420.109 km
Speed
7.659 km/s
Apparent Right ascension
06h 37m 46s
Apparent Declination
-32° 05' 22"
Sunlit
Object is in daylight
Visualization observer readout
Local Sidereal Time
21:37:42
Azimuth
92.193° ESE
Elevation
-53.177°
Doppler factor
1
Orbital elements
Apogee altitude
417.905 km
Perigee altitude
414.756 km
Semi-major axis
6,794.467 km
Eccentricity
0.00023
Inclination
51.6345°
RAAN
239.6041°
Arg. of periapsis
313.2634°
True anomaly
Unknown
Mean anomaly
46.8161°
Eccentric anomaly
Unknown
Mean motion
3.87534 °/min
Orbital period
92.9 mins
BSTAR
0.000092136
Loading maneuver chart data...
Loading SW <> Apogee altitude chart data...
Loading historical data...
Loading historical data...
Loading historical data...
Loading historical data...
Loading historical data...
Loading historical data...
Loading historical data...
Other satellites on launch #136 in the year 2025 (2025-06-25 UTC)

AXIOM-4 Visibility forecast

Observer location: undefined°, undefined°

Span
Click to sort rows by Start time (UTC) header in descending order
Start Az.
Max El. time (UTC)
Max El. Az.
Max El.
End time (UTC)
End Az.
4 mins2025-07-01 12:43:20.192Z334.293° NNW2025-07-01 12:45:20.192Z57.592° ENE32.569°2025-07-01 12:47:20.192Z100.682° ESE
5 mins2025-07-02 07:01:20.192Z261.577° W2025-07-02 07:03:20.192Z331.912° NNW35.758°2025-07-02 07:06:20.192Z42.225° NE
|